FENGYUN 1C DEB, 31514

Orbit data source: Space-Track

FENGYUN 1C DEB, 31514 is space debris in SSO originally from a launch on Mon, 10 May 1999 UTC launched from the Taiyaun Space Center, China (TSC). Fengyun 1C debris stems from the Chinese weather satellite Fengyun-1C, which was intentionally destroyed by a Chinese anti-satellite missile in 2007. This event dramatically increased the amount of space debris, with thousands of trackable fragments posing hazards to satellites and human spaceflight. The Fengyun 1C debris cloud has become a focal point in discussions about space sustainability and the need for international regulations to prevent the creation of new debris.

Loading next visibility...
Identifier
31514, 1999-025BXD
Orbit
SSO
Country
Flag of CNCN / PRC
Related business
Manufacturer
Unknown
Mission
Spacecraft
Bus & Motor
Unknown
Mass
Unknown
Launch date (UTC)
1999-05-10 (27 years ago)
Launch vehicle
Unknown
Launch site
Taiyaun Space Center, China (TSC)
Object type
Payload
Rocket body
Debris
Shape & HBR
Unknown shape, 0.1 m
Radar Cross Section
Small (<0.1 m²)

Expand to show TLE details & history
Last TLE update: 6 days ago

TLE from 6 days ago
0 FENGYUN 1C DEB
1 31514U 99025BXD 26163.57239926  .00002432  00000-0  11023-2 0  9990
2 31514  99.2442  77.9042 0053535 323.3021  36.4493 14.22195512719086
Epoch: 2026-06-12T13:44Z
TLE epoch observation values (Epoch: 2026-06-12T13:44:15.296Z)
Latitude
-0.00006°
Longitude
-29.05944°
Altitude
789.916 km
Speed
7.475 km/s
True Right ascension
05h 11m 37s
True Declination
0° 00' 00"
Sunlit
Object was in daylight at epoch
Visualization orbit readout
Latitude
Unknown
Longitude
Unknown
Altitude
Unknown
Speed
Unknown
Apparent Right ascension
Unknown
Apparent Declination
Unknown
Sunlit
N/A
Visualization observer readout
Local Sidereal Time
07:59:03
Azimuth
Unknown
Elevation
Unknown
Doppler factor
Unknown
Orbital elements
Apogee altitude
853.628 km
Perigee altitude
776.61 km
Semi-major axis
7,193.256 km
Eccentricity
0.00535
Inclination
99.2442°
RAAN
77.9042°
Arg. of periapsis
323.3021°
True anomaly
36.81574°
Mean anomaly
36.4493°
Eccentric anomaly
36.63232°
Mean motion
3.55758 °/min
Orbital period
101.19 mins
BSTAR
0.0011023
Loading maneuver chart data...
Computing Atmospheric mass density...
Loading historical data...
Loading historical data...
Loading historical data...
Loading historical data...
Loading historical data...
Loading historical data...
Loading historical data...

Documentation

Showing up to 5 results
|